User: anonymous   Login
Location: Zagreb
(45.8000°N, 16.0000°E)
Time: 23:21:35
(UTC+01:00)
Language:

Gurwin Techsat 1B - Orbit

View from above orbital plane
View from above orbital plane
View from above satellite
View from above satellite

Ground track
Ground track

The orbit data is extracted from the following two-line orbital elements,

1 25397U 98043D   20304.10126238 -.00000012  00000-0  14317-4 0  9996
2 25397  98.7411 244.6428 0002084  55.5453 304.5922 14.23693303158934
Epoch (UTC): 30 October 2020 02:25:49
Eccentricity: 0.0002084
inclination: 98.7411°
perigee height: 811 km
apogee height: 814 km
right ascension of ascending node: 244.6428°
argument of perigee: 55.5453°
revolutions per day: 14.23693303
mean anomaly at epoch: 304.5922°
orbit number at epoch: 15893

The dashed part of the orbit path shows where the satellite is in the earth's shadow,  

DLR